SR 1 @Wilkins Rd, Milford DE USA current weather conditions

sailwx.info

Wind from 120 at 9 knots gusting 16

Air temperature 8.8° C
Dewpoint 12.2° C

Last reported at 2020-Jan-25 10:55 UTC.
Time now 2020-Jan-25 11:23 UTC

Location: N 38°53' W 075°23'.
View on Google Maps.

See reports from other nearby stations

  
Tides and Currents Weather Stations Pressure Air Temp Water Temp Dewpoint Dewpoint Depression Visibility Wind Speed Wind Dir Waves Ship Positions
date/time (UTC)wind fromknots sea level pressurealtimeterstation pressurevisibilityair tempwater tempwave heightnotes
2020-Jan-25 11:00 110 9 gusting 15 9.0
2020-Jan-25 10:55 120 9 gusting 16 8.8
2020-Jan-25 10:50 120 9 gusting 19 8.8
2020-Jan-25 10:45 125 12 gusting 20 8.7
2020-Jan-25 10:40 125 11 gusting 20 8.8
2020-Jan-25 10:35 130 12 gusting 16 8.6
2020-Jan-25 10:30 125 11 gusting 17 8.6
2020-Jan-25 10:25 125 12 gusting 21 8.5
2020-Jan-25 10:20 120 13 gusting 21 8.3
2020-Jan-25 10:15 120 12 gusting 18 8.3
2020-Jan-25 10:10 120 13 gusting 19 8.3
2020-Jan-25 10:05 125 13 gusting 20 8.5
2020-Jan-25 10:00 125 13 gusting 20 8.5
2020-Jan-25 09:55 125 10 gusting 17 8.5
2020-Jan-25 09:50 115 12 gusting 17 8.6
2020-Jan-25 09:45 120 10 gusting 16 8.5
2020-Jan-25 09:40 120 9 gusting 18 8.5
2020-Jan-25 09:35 120 12 gusting 19 8.5
2020-Jan-25 09:30 110 13 gusting 19 8.5
2020-Jan-25 09:25 105 10 gusting 15 8.5
2020-Jan-25 09:20 110 10 gusting 16 8.6
2020-Jan-25 09:15 115 10 gusting 21 8.6
2020-Jan-25 09:10 115 10 gusting 21 8.6
2020-Jan-25 09:05 115 11 gusting 16 8.6
2020-Jan-25 09:00 110 10 gusting 16 8.6
2020-Jan-25 08:55 120 12 gusting 16 8.6
2020-Jan-25 08:50 115 12 gusting 16 8.6
2020-Jan-25 08:45 115 11 gusting 18 8.5
2020-Jan-25 08:40 125 9 gusting 18 8.5
2020-Jan-25 08:35 120 12 gusting 19 8.5
2020-Jan-25 08:30 120 12 gusting 19 8.3
2020-Jan-25 08:25 125 11 gusting 19 8.3
2020-Jan-25 08:20 130 12 gusting 16 8.3
2020-Jan-25 08:15 130 9 gusting 16 8.3
2020-Jan-25 08:10 120 9 gusting 15 8.3
2020-Jan-25 08:05 120 8 gusting 16 8.2
2020-Jan-25 08:00 120 12 gusting 17 8.2
2020-Jan-25 07:55 120 10 gusting 17 8.2
2020-Jan-25 07:50 115 8 gusting 17 8.1
2020-Jan-25 07:45 120 9 gusting 17 8.1
2020-Jan-25 07:40 115 9 gusting 14 8.1
2020-Jan-25 07:35 120 10 gusting 14 8.1
2020-Jan-25 07:30 120 11 gusting 15 8.0
2020-Jan-25 07:25 110 10 gusting 15 8.0
2020-Jan-25 07:20 110 9 gusting 14 8.0
2020-Jan-25 07:15 110 11 gusting 15 7.8
2020-Jan-25 07:10 120 10 gusting 15 7.7
2020-Jan-25 07:05 120 12 gusting 15 7.7
2020-Jan-25 07:00 120 10 gusting 15 7.6
2020-Jan-25 06:55 135 8 gusting 15 7.6
2020-Jan-25 06:50 110 10 gusting 16 7.6
2020-Jan-25 06:45 105 10 gusting 16 7.6
2020-Jan-25 06:40 120 9 gusting 16 7.6
2020-Jan-25 06:35 105 10 gusting 16 7.6
2020-Jan-25 06:30 115 9 gusting 15 7.5
2020-Jan-25 06:25 110 10 gusting 15 7.5
2020-Jan-25 06:20 115 10 gusting 13 7.3
2020-Jan-25 06:15 110 10 gusting 14 7.2
2020-Jan-25 06:10 110 10 gusting 14 7.1
2020-Jan-25 06:05 100 8 gusting 14 7.2
2020-Jan-25 06:00 100 8 gusting 17 7.2
2020-Jan-25 05:55 110 10 gusting 17 7.3
2020-Jan-25 05:50 110 12 gusting 16 7.3
2020-Jan-25 05:45 105 11 gusting 16 7.3
2020-Jan-25 05:40 115 9 gusting 16 7.5
2020-Jan-25 05:35 120 10 gusting 15 7.6
2020-Jan-25 05:30 105 9 gusting 12 7.6
2020-Jan-25 05:25 120 7 gusting 12 7.5
2020-Jan-25 05:20 115 8 gusting 14 7.3
2020-Jan-25 05:15 115 10 gusting 14 7.2
2020-Jan-25 05:10 115 8 gusting 13 7.2
2020-Jan-25 05:05 110 8 gusting 13 7.1
2020-Jan-25 05:00 105 8 gusting 14 7.2
2020-Jan-25 04:55 110 8 gusting 14 7.3
2020-Jan-25 04:50 115 7 gusting 13 7.2
2020-Jan-25 04:45 120 9 gusting 13 7.2
2020-Jan-25 04:40 105 8 gusting 14 7.2
2020-Jan-25 04:35 115 8 gusting 13 7.3
2020-Jan-25 04:30 110 7 gusting 13 7.2
2020-Jan-25 04:25 125 6 gusting 15 7.3
2020-Jan-25 04:20 120 10 gusting 15 7.5
2020-Jan-25 04:15 120 8 gusting 13 7.5
2020-Jan-25 04:10 105 7 gusting 13 7.3
2020-Jan-25 04:05 110 10 gusting 13 7.5
2020-Jan-25 04:00 105 9 gusting 13 7.6
2020-Jan-25 03:55 115 9 gusting 15 7.5
2020-Jan-25 03:50 105 8 gusting 15 7.3
2020-Jan-25 03:45 105 8 gusting 14 7.1
2020-Jan-25 03:40 110 9 gusting 14 7.1
2020-Jan-25 03:35 105 8 gusting 14 7.1
2020-Jan-25 03:30 100 7 gusting 15 7.0
2020-Jan-25 03:25 110 10 gusting 15 7.0
2020-Jan-25 03:20 105 8 gusting 17 6.8
2020-Jan-25 03:15 100 10 gusting 17 7.0
2020-Jan-25 03:10 105 9 gusting 16 7.0
2020-Jan-25 03:05 100 11 gusting 16 7.1
2020-Jan-25 03:00 100 11 gusting 19 7.0
2020-Jan-25 02:55 105 9 gusting 19 7.0
2020-Jan-25 02:50 105 10 gusting 16 7.0
2020-Jan-25 02:45 110 11 gusting 15 7.0
2020-Jan-25 02:40 105 10 gusting 14 7.0
2020-Jan-25 02:35 100 9 gusting 13 6.8
2020-Jan-25 02:30 095 9 gusting 13 7.0
2020-Jan-25 02:25 110 8 gusting 13 6.8
2020-Jan-25 02:20 100 9 gusting 13 7.0
2020-Jan-25 02:15 100 7 gusting 13 7.0
2020-Jan-25 02:10 110 9 gusting 13 7.1
2020-Jan-25 02:05 120 7 gusting 13 6.8
2020-Jan-25 02:00 110 7 gusting 13 6.7
2020-Jan-25 01:55 120 7 gusting 12 6.6
2020-Jan-25 01:50 110 8 gusting 12 6.6
2020-Jan-25 01:45 100 8 gusting 12 6.6
2020-Jan-25 01:40 110 7 gusting 13 6.5
2020-Jan-25 01:35 110 8 gusting 13 6.6
2020-Jan-25 01:30 105 7 gusting 13 6.6
2020-Jan-25 01:25 105 8 gusting 13 6.6
2020-Jan-25 01:20 095 10 gusting 14 6.6
2020-Jan-25 01:15 090 9 gusting 14 6.7
2020-Jan-25 01:10 100 10 gusting 15 6.8
2020-Jan-25 01:05 105 10 gusting 15 7.0
2020-Jan-25 01:00 090 9 gusting 14 7.1
2020-Jan-25 00:55 110 10 gusting 16 7.1
2020-Jan-25 00:50 100 10 gusting 16 7.1
2020-Jan-25 00:45 105 10 gusting 16 7.2
2020-Jan-25 00:40 105 11 gusting 17 7.3
2020-Jan-25 00:35 110 10 gusting 17 7.5
2020-Jan-25 00:30 110 10 gusting 16 7.6
2020-Jan-25 00:25 105 10 gusting 16 7.6
2020-Jan-25 00:20 105 9 gusting 16 7.6
2020-Jan-25 00:15 105 7 gusting 14 7.6
2020-Jan-25 00:10 095 7 gusting 14 7.6
2020-Jan-25 00:05 115 9 gusting 15 7.6
2020-Jan-25 00:00 110 10 gusting 15 7.6
2020-Jan-24 23:55 100 10 gusting 14 7.6
2020-Jan-24 23:50 100 9 gusting 14 7.6
2020-Jan-24 23:45 095 8 gusting 13 7.5
2020-Jan-24 23:40 105 8 gusting 13 7.5
2020-Jan-24 23:35 110 8 gusting 12 7.5
2020-Jan-24 23:30 105 9 gusting 12 7.3
2020-Jan-24 23:25 100 7 gusting 13 7.3
2020-Jan-24 23:20 110 7 gusting 13 7.3
2020-Jan-24 23:15 095 7 gusting 12 7.3
2020-Jan-24 23:10 095 7 gusting 12 7.2
2020-Jan-24 23:05 095 6 gusting 11 7.2
2020-Jan-24 23:00 095 8 gusting 12 7.1
2020-Jan-24 22:55 110 6 gusting 15 7.1
2020-Jan-24 22:50 100 8 gusting 15 7.1
2020-Jan-24 22:45 110 8 gusting 14 7.1
2020-Jan-24 22:40 110 8 gusting 13 7.1
2020-Jan-24 22:35 110 8 gusting 13 7.1
2020-Jan-24 22:30 110 8 gusting 14 7.1
2020-Jan-24 22:25 110 8 gusting 14 7.1
2020-Jan-24 22:20 100 8 gusting 13 7.1
2020-Jan-24 22:15 105 8 gusting 13 7.1
2020-Jan-24 22:10 105 10 gusting 13 7.1
2020-Jan-24 22:05 100 6 gusting 13 7.2
2020-Jan-24 22:00 100 8 gusting 13 7.2
2020-Jan-24 21:55 105 7 gusting 12 7.3
2020-Jan-24 21:50 105 7 gusting 12 7.3
2020-Jan-24 21:45 100 9 gusting 13 7.5
2020-Jan-24 21:40 100 10 gusting 13 7.5
2020-Jan-24 21:35 115 7 gusting 11 7.6
2020-Jan-24 21:30 100 8 gusting 11 7.6
2020-Jan-24 21:25 105 8 gusting 12 7.6
2020-Jan-24 21:20 105 9 gusting 12 7.6
2020-Jan-24 21:15 105 8 gusting 13 7.7
2020-Jan-24 21:10 115 10 gusting 13 7.6
2020-Jan-24 21:05 120 7 gusting 11 7.7
2020-Jan-24 21:00 125 7 gusting 11 7.8
2020-Jan-24 20:55 125 8 gusting 13 8.0
2020-Jan-24 20:50 125 9 gusting 14 8.1
2020-Jan-24 20:45 125 7 gusting 14 8.5
2020-Jan-24 20:40 120 9 gusting 15 8.6
2020-Jan-24 20:35 130 11 gusting 15 9.2
2020-Jan-24 20:30 120 9 gusting 15 9.6
2020-Jan-24 20:25 110 6 gusting 18 9.5
2020-Jan-24 20:20 110 11 gusting 18 9.5
2020-Jan-24 20:15 125 9 gusting 18 9.6
2020-Jan-24 20:10 115 11 gusting 19 9.6
2020-Jan-24 20:05 095 13 gusting 21 9.6
2020-Jan-24 20:00 100 12 gusting 21 9.6
2020-Jan-24 19:55 105 13 gusting 21 9.7
2020-Jan-24 19:50 105 14 gusting 20 9.8
2020-Jan-24 19:45 110 15 gusting 22 9.7
2020-Jan-24 19:40 110 13 gusting 22 9.8
2020-Jan-24 19:35 115 13 gusting 22 9.7
2020-Jan-24 19:30 105 16 gusting 23 10.1
2020-Jan-24 19:25 105 17 gusting 23 10.2
2020-Jan-24 19:20 110 14 gusting 21 10.3
2020-Jan-24 19:15 105 16 gusting 23 10.2
2020-Jan-24 19:10 115 13 gusting 23 10.3
2020-Jan-24 19:05 115 13 gusting 19 10.2
2020-Jan-24 19:00 110 12 gusting 21 10.7
2020-Jan-24 18:55 110 10 gusting 21 10.3
2020-Jan-24 18:50 115 14 gusting 20 9.7
2020-Jan-24 18:45 110 11 gusting 17 10.2
2020-Jan-24 18:40 110 12 gusting 16 10.3
2020-Jan-24 18:35 105 9 gusting 14 10.4
2020-Jan-24 18:30 110 7 gusting 17 10.7
2020-Jan-24 18:25 120 9 gusting 17 10.2
2020-Jan-24 18:20 125 10 gusting 17 10.1
2020-Jan-24 18:15 125 12 gusting 17 10.7
2020-Jan-24 18:10 120 8 gusting 16 10.3
2020-Jan-24 18:05 120 9 gusting 13 10.1
2020-Jan-24 18:00 125 10 gusting 13 10.0
2020-Jan-24 17:55 100 9 gusting 14 9.3
2020-Jan-24 17:50 095 10 gusting 14 9.5
2020-Jan-24 17:45 100 10 gusting 15 9.5
2020-Jan-24 17:40 105 9 gusting 15 9.8
2020-Jan-24 17:35 115 7 gusting 13 10.0
2020-Jan-24 17:30 120 9 gusting 15 9.8
2020-Jan-24 17:25 115 7 gusting 15 9.6
2020-Jan-24 17:20 120 10 gusting 13 9.6
2020-Jan-24 17:15 125 9 gusting 15 9.3
2020-Jan-24 17:10 115 10 gusting 15 9.6
2020-Jan-24 17:05 125 7 gusting 13 9.2
2020-Jan-24 17:00 100 7 gusting 13 9.2
2020-Jan-24 16:55 110 9 gusting 13 8.8
2020-Jan-24 16:50 115 9 gusting 13 8.7
2020-Jan-24 16:45 110 6 gusting 12 8.7
2020-Jan-24 16:40 110 7 gusting 12 8.3
2020-Jan-24 16:35 090 9 gusting 12 8.0
2020-Jan-24 16:30 100 7 gusting 11 7.8
2020-Jan-24 16:25 100 6 gusting 10 7.6
2020-Jan-24 16:20 100 6 gusting 11 7.5
2020-Jan-24 16:15 105 7 gusting 11 7.3
2020-Jan-24 16:10 100 7 gusting 12 7.5
2020-Jan-24 16:05 110 6 gusting 12 7.3
2020-Jan-24 16:00 095 6 gusting 10 7.1
2020-Jan-24 15:55 110 6 gusting 10 7.2
2020-Jan-24 15:50 115 7 gusting 10 7.0
2020-Jan-24 15:45 095 4 gusting 10 6.6
2020-Jan-24 15:40 090 7 gusting 10 6.5
2020-Jan-24 15:35 090 6 gusting 10 6.3
2020-Jan-24 15:30 095 6 gusting 9 6.3
2020-Jan-24 15:25 100 5 gusting 8 6.1
2020-Jan-24 15:20 100 6 gusting 8 6.1
2020-Jan-24 15:15 095 4 gusting 8 5.7
2020-Jan-24 15:10 075 6 gusting 8 5.6
2020-Jan-24 15:05 085 4 gusting 9 5.5
2020-Jan-24 15:00 080 5 gusting 9 5.5
2020-Jan-24 14:55 085 5 gusting 10 5.2
2020-Jan-24 14:50 090 6 gusting 10 5.1
2020-Jan-24 14:45 075 7 gusting 10 5.1
2020-Jan-24 14:40 080 5 gusting 9 5.1
2020-Jan-24 14:35 080 6 gusting 9 5.0
2020-Jan-24 14:30 075 6 gusting 10 4.8
2020-Jan-24 14:25 070 5 gusting 8 4.8
2020-Jan-24 14:20 080 4 gusting 7 4.7
2020-Jan-24 14:15 070 4 gusting 8 4.6
2020-Jan-24 14:10 055 5 gusting 8 4.5
2020-Jan-24 14:05 055 5 gusting 7 4.3
2020-Jan-24 14:00 045 5 gusting 6 4.3
2020-Jan-24 13:55 050 4 gusting 6 4.2
2020-Jan-24 13:50 045 4 gusting 5 4.1
2020-Jan-24 13:45 045 3 gusting 5 4.0
2020-Jan-24 13:40 050 4 gusting 5 3.7
2020-Jan-24 13:35 050 4 gusting 5 3.4
2020-Jan-24 13:30 040 2 gusting 6 3.1
2020-Jan-24 13:25 055 4 gusting 6 3.0
2020-Jan-24 13:20 050 4 gusting 6 2.7
2020-Jan-24 13:15 040 4 gusting 6 2.5
2020-Jan-24 13:10 045 3 gusting 5 2.1
2020-Jan-24 13:05 045 3 gusting 4 1.9
2020-Jan-24 13:00 050 3 gusting 4 1.2
2020-Jan-24 12:55 040 2 gusting 3 1.1
2020-Jan-24 12:50 035 2 gusting 3 1.1
2020-Jan-24 12:45 025 2 gusting 3 1.1
2020-Jan-24 12:40 1.0
2020-Jan-24 12:35 025 3 gusting 4 -0.0
2020-Jan-24 12:30 040 3 gusting 4 0.1
2020-Jan-24 12:25 040 2 gusting 4 0.2
2020-Jan-24 12:20 040 3 gusting 4 -0.0
2020-Jan-24 12:15 030 3 gusting 4 0.5
2020-Jan-24 12:10 035 3 gusting 4 0.1
2020-Jan-24 12:05 040 3 gusting 4 0.3
2020-Jan-24 12:00 035 2 gusting 5 0.7
2020-Jan-24 11:55 045 3 gusting 6 1.1
2020-Jan-24 11:50 050 4 gusting 6 1.2
2020-Jan-24 11:45 050 3 gusting 6 1.1
2020-Jan-24 11:40 050 4 gusting 7 1.2
2020-Jan-24 11:35 045 5 gusting 9 1.1
2020-Jan-24 11:30 045 6 gusting 9 1.4
2020-Jan-24 11:25 050 5 gusting 7 1.0
2020-Jan-24 11:20 045 4 gusting 5 0.6
2020-Jan-24 11:15 050 3 gusting 5 0.3
2020-Jan-24 11:10 045 4 gusting 5 0.6
2020-Jan-24 11:05 040 4 gusting 6 0.6
2020-Jan-24 11:00 050 4 gusting 6 0.6
2020-Jan-24 10:55 040 4 gusting 6 0.6
2020-Jan-24 10:50 030 4 gusting 6 0.5
2020-Jan-24 10:45 035 4 gusting 6 0.5
2020-Jan-24 10:40 030 4 gusting 6 0.6
2020-Jan-24 10:35 040 4 gusting 6 0.5
2020-Jan-24 10:30 025 5 gusting 6 0.1
2020-Jan-24 10:25 025 5 gusting 6 0.1
2020-Jan-24 10:20 025 4 gusting 5 -0.0
2020-Jan-24 10:15 030 3 gusting 5 0.1
2020-Jan-24 10:10 035 3 gusting 5 0.1
2020-Jan-24 10:05 010 3 gusting 4 -0.4
2020-Jan-24 10:00 005 3 gusting 4 -0.3
2020-Jan-24 09:55 005 3 gusting 5 -0.3
2020-Jan-24 09:50 010 4 gusting 5 -0.1
2020-Jan-24 09:45 010 4 gusting 5 -0.7
2020-Jan-24 09:40 -0.5
2020-Jan-24 09:35 355 4 gusting 5 -0.4
2020-Jan-24 09:30 005 4 gusting 5 -0.8
2020-Jan-24 09:25 355 4 gusting 4 -0.5
2020-Jan-24 09:20 005 3 gusting 4 -0.0
2020-Jan-24 09:15 025 3 gusting 5 -0.1
2020-Jan-24 09:10 020 3 gusting 5 -0.0
2020-Jan-24 09:05 020 4 gusting 5 -0.1
2020-Jan-24 09:00 025 4 gusting 5 -0.5
2020-Jan-24 08:55 025 3 gusting 5 -0.4
2020-Jan-24 08:50 040 3 gusting 4 -0.0
2020-Jan-24 08:45 025 4 gusting 4 -0.4
2020-Jan-24 08:40 005 3 gusting 3 -0.0
2020-Jan-24 08:35 -0.3
2020-Jan-24 08:30 350 3 gusting 4 -0.8
2020-Jan-24 08:25 345 4 gusting 4 -0.9
2020-Jan-24 08:20 330 3 gusting 3 -0.4
2020-Jan-24 08:15 330 2 gusting 4 -0.1
2020-Jan-24 08:10 330 2 gusting 4 -0.4
2020-Jan-24 08:05 335 3 gusting 4 -0.4
2020-Jan-24 08:00 005 3 gusting 4 -0.0
2020-Jan-24 07:55 005 3 gusting 4 -0.0
2020-Jan-24 07:50 005 3 gusting 5 0.2
2020-Jan-24 07:45 010 3 gusting 5 0.7
2020-Jan-24 07:40 035 4 gusting 6 1.1
2020-Jan-24 07:35 045 4 gusting 6 1.2
2020-Jan-24 07:30 050 4 gusting 6 1.5
2020-Jan-24 07:25 040 4 gusting 7 1.6
2020-Jan-24 07:20 045 5 gusting 7 1.7
2020-Jan-24 07:15 040 6 gusting 7 1.6
2020-Jan-24 07:10 050 5 gusting 7 1.2
2020-Jan-24 07:05 050 4 gusting 6 1.6
2020-Jan-24 07:00 040 4 gusting 6 1.6
2020-Jan-24 06:55 050 4 gusting 5 1.2
2020-Jan-24 06:50 055 4 gusting 6 1.1
2020-Jan-24 06:45 055 3 gusting 6 1.1
2020-Jan-24 06:40 040 5 gusting 6 1.1
2020-Jan-24 06:35 045 5 gusting 6 0.6
2020-Jan-24 06:30 045 4 gusting 5 0.6
2020-Jan-24 06:25 035 4 gusting 4 0.1
2020-Jan-24 06:20 005 2 gusting 3 -0.4
2020-Jan-24 06:15 345 2 gusting 3 -0.1
2020-Jan-24 06:10 -0.3
2020-Jan-24 06:05 010 2 gusting 3 -0.1
2020-Jan-24 06:00 010 2 gusting 3 -0.0
2020-Jan-24 05:55 025 3 gusting 4 -0.3
2020-Jan-24 05:50 035 3 gusting 4 -0.3
2020-Jan-24 05:45 030 2 gusting 3 -0.3
2020-Jan-24 05:40 015 2 gusting 2 -0.0
2020-Jan-24 05:35 335 1 gusting 2 -0.0
2020-Jan-24 05:30 005 1 gusting 2 -0.1
2020-Jan-24 05:25 010 1 gusting 3 -0.4
2020-Jan-24 05:20 005 2 gusting 4 -0.4
2020-Jan-24 05:15 010 3 gusting 4 -0.3
2020-Jan-24 05:10 020 4 gusting 4 -0.9
2020-Jan-24 05:05 005 3 gusting 3 -0.7
2020-Jan-24 05:00 -0.5
2020-Jan-24 04:55 015 2 gusting 2 -0.4
2020-Jan-24 04:50 010 2 gusting 2 -0.3
2020-Jan-24 04:45 005 2 gusting 3 -0.0
2020-Jan-24 04:40 015 3 gusting 3 -0.0
2020-Jan-24 04:35 020 3 gusting 3 -0.4
2020-Jan-24 04:30 005 3 gusting 3 -0.7
2020-Jan-24 04:25 -0.4
2020-Jan-24 04:20 -0.3
2020-Jan-24 04:15 -0.1
2020-Jan-24 04:10 010 2 gusting 4 0.3
2020-Jan-24 04:05 020 2 gusting 5 0.5
2020-Jan-24 04:00 045 4 gusting 5 1.1
2020-Jan-24 03:55 050 4 gusting 4 0.6
2020-Jan-24 03:50 040 3 gusting 3 -0.1
2020-Jan-24 03:45 035 2 gusting 3 0.6
2020-Jan-24 03:40 050 1 gusting 3 0.7
2020-Jan-24 03:35 045 2 gusting 4 0.7
2020-Jan-24 03:30 030 2 gusting 4 0.6
2020-Jan-24 03:25 020 3 gusting 3 0.2
2020-Jan-24 03:20 020 3 gusting 3 0.1
2020-Jan-24 03:15 0.2
2020-Jan-24 03:10 350 3 gusting 3 0.2
2020-Jan-24 03:05 015 3 gusting 4 0.1
2020-Jan-24 03:00 355 3 gusting 4 -0.3
2020-Jan-24 02:55 350 3 gusting 4 -0.3
2020-Jan-24 02:50 320 2 gusting 3 -0.3
2020-Jan-24 02:45 335 2 gusting 3 -0.3
2020-Jan-24 02:40 325 3 gusting 3 0.1
2020-Jan-24 02:35 345 2 gusting 4 -0.1
2020-Jan-24 02:30 035 2 gusting 4 -0.1
2020-Jan-24 02:25 045 3 gusting 3 -0.4
2020-Jan-24 02:20 045 3 gusting 3 -0.0
2020-Jan-24 02:15 020 1 gusting 2 0.3
2020-Jan-24 02:10 050 2 gusting 2 0.3
2020-Jan-24 02:05 030 1 gusting 2 0.3
2020-Jan-24 02:00 350 1 gusting 2 0.3
2020-Jan-24 01:55 320 1 gusting 2 -0.3
2020-Jan-24 01:50 335 1 gusting 2 -0.8
2020-Jan-24 01:45 340 1 gusting 2 -0.8
2020-Jan-24 01:40 350 1 gusting 2 -0.4
2020-Jan-24 01:35 320 1 gusting 2 -0.4
2020-Jan-24 01:30 065 0 gusting 2 -0.0
2020-Jan-24 01:25 090 0 gusting 4 0.7
2020-Jan-24 01:20 100 2 gusting 4 0.7
2020-Jan-24 01:15 110 2 gusting 4 0.7
2020-Jan-24 01:10 100 2 gusting 4 0.7
2020-Jan-24 01:05 090 1 gusting 2 0.3
2020-Jan-24 01:00 070 1 gusting 2 1.1
2020-Jan-24 00:55 090 1 gusting 2 1.1
2020-Jan-24 00:50 085 1 gusting 2 1.4
2020-Jan-24 00:45 105 1 gusting 3 1.1
2020-Jan-24 00:40 135 1 gusting 3 0.7
2020-Jan-24 00:35 115 2 gusting 3 1.2
2020-Jan-24 00:30 135 1 gusting 3 1.2
2020-Jan-24 00:25 135 2 gusting 2 1.0
2020-Jan-24 00:20 095 2 gusting 2 1.2
2020-Jan-24 00:15 120 2 gusting 2 1.4
2020-Jan-24 00:10 100 2 gusting 2 1.6
2020-Jan-24 00:05 050 1 gusting 2 1.2
2020-Jan-24 00:00 095 1 gusting 3 1.1
2020-Jan-23 23:55 125 2 gusting 3 1.4
2020-Jan-23 23:50 135 2 gusting 4 1.6
2020-Jan-23 23:45 150 2 gusting 4 1.6
2020-Jan-23 23:40 105 2 gusting 3 1.5
2020-Jan-23 23:35 125 2 gusting 3 1.9
2020-Jan-23 23:30 145 1 gusting 4 2.1
2020-Jan-23 23:25 135 3 gusting 4 2.0
2020-Jan-23 23:20 120 1 gusting 2 2.2
2020-Jan-23 23:15 095 1 gusting 1 2.9
2020-Jan-23 23:10 090 1 gusting 2 2.6
2020-Jan-23 23:05 070 1 gusting 2 1.7
2020-Jan-23 23:00 065 2 gusting 2 2.1
2020-Jan-23 22:55 125 1 gusting 2 3.1
2020-Jan-23 22:50 045 0 gusting 2 2.4
2020-Jan-23 22:45 090 2 gusting 2 2.1
2020-Jan-23 22:40 080 2 gusting 2 2.1
2020-Jan-23 22:35 050 1 gusting 1 2.1
2020-Jan-23 22:30 030 0 gusting 1 3.0
2020-Jan-23 22:25 345 0 gusting 1 3.0
2020-Jan-23 22:20 050 0 gusting 1 3.4
2020-Jan-23 22:15 135 0 gusting 1 3.6
2020-Jan-23 22:10 135 0 gusting 1 3.4
2020-Jan-23 22:05 060 1 gusting 2 3.6
2020-Jan-23 22:00 135 2 gusting 2 3.7
2020-Jan-23 21:55 130 1 gusting 2 3.7
2020-Jan-23 21:50 135 1 gusting 3 4.0
2020-Jan-23 21:45 145 2 gusting 3 4.1
2020-Jan-23 21:40 110 2 gusting 3 4.1
2020-Jan-23 21:35 135 2 gusting 3 4.3
2020-Jan-23 21:30 170 2 gusting 3 4.5
2020-Jan-23 21:25 200 2 gusting 3 4.5
2020-Jan-23 21:20 180 2 gusting 3 4.6
2020-Jan-23 21:15 160 1 gusting 3 4.6
2020-Jan-23 21:10 140 1 gusting 3 4.3
2020-Jan-23 21:05 115 2 gusting 3 4.3
2020-Jan-23 21:00 105 0 gusting 1 4.2
2020-Jan-23 20:55 085 1 gusting 2 4.3
2020-Jan-23 20:50 095 1 gusting 2 4.6
2020-Jan-23 20:45 140 1 gusting 3 4.6
2020-Jan-23 20:40 165 1 gusting 3 4.6
2020-Jan-23 20:35 120 1 gusting 2 4.5
2020-Jan-23 20:30 135 1 gusting 2 4.5
2020-Jan-23 20:25 125 2 gusting 2 4.5
2020-Jan-23 20:20 115 1 gusting 2 4.5
2020-Jan-23 20:15 060 1 gusting 3 4.5
2020-Jan-23 20:10 115 2 gusting 4 4.5
2020-Jan-23 20:05 150 1 gusting 5 4.5
2020-Jan-23 20:00 105 2 gusting 5 4.3
2020-Jan-23 19:55 075 4 gusting 5 4.2
2020-Jan-23 19:50 065 4 gusting 4 4.3
2020-Jan-23 19:45 060 2 gusting 5 4.2
2020-Jan-23 19:40 070 2 gusting 5 4.2
2020-Jan-23 19:35 060 3 gusting 6 4.3
2020-Jan-23 19:30 055 4 gusting 6 4.2
2020-Jan-23 19:25 065 5 gusting 6 4.5
2020-Jan-23 19:20 045 4 gusting 6 4.5
2020-Jan-23 19:15 065 3 gusting 4 4.6
2020-Jan-23 19:10 025 2 gusting 6 4.6
2020-Jan-23 19:05 035 3 gusting 6 4.5
2020-Jan-23 19:00 065 3 gusting 7 4.6
2020-Jan-23 18:55 045 4 gusting 7 4.3
2020-Jan-23 18:50 035 5 gusting 6 4.5
2020-Jan-23 18:45 030 4 gusting 6 4.6
2020-Jan-23 18:40 055 3 gusting 6 4.5
2020-Jan-23 18:35 080 4 gusting 6 4.8
2020-Jan-23 18:30 045 4 gusting 6 4.6
2020-Jan-23 18:25 020 5 gusting 6 4.6
2020-Jan-23 18:20 050 3 gusting 6 4.7
2020-Jan-23 18:15 040 3 gusting 7 4.5
2020-Jan-23 18:10 040 4 gusting 7 4.5
2020-Jan-23 18:05 040 5 gusting 7 4.6
2020-Jan-23 18:00 055 3 gusting 6 4.6
2020-Jan-23 17:55 045 4 gusting 6 5.0
2020-Jan-23 17:50 070 5 gusting 7 4.7
2020-Jan-23 17:40 055 5 gusting 7 4.7
2020-Jan-23 17:35 050 4 gusting 6 5.1
2020-Jan-23 17:30 075 5 gusting 6 5.1
2020-Jan-23 17:25 005 3 gusting 6 5.0
2020-Jan-23 17:20 045 4 gusting 7 4.1
2020-Jan-23 17:15 4.1
2020-Jan-23 17:10 020 3 gusting 6 4.3
2020-Jan-23 17:05 065 4 gusting 6 4.1
2020-Jan-23 17:00 005 5 gusting 7 4.1
2020-Jan-23 16:55 015 4 gusting 7 4.2
2020-Jan-23 16:50 005 5 gusting 7 4.1
2020-Jan-23 16:45 020 3 gusting 6 4.2
2020-Jan-23 16:40 025 5 gusting 6 4.3
2020-Jan-23 16:35 040 3 gusting 6 4.1
2020-Jan-23 16:30 050 4 gusting 6 4.0
2020-Jan-23 16:25 010 4 gusting 6 4.0
2020-Jan-23 16:20 005 3 gusting 6 3.9
2020-Jan-23 16:15 020 4 gusting 6 3.7
2020-Jan-23 16:10 040 3 gusting 7 3.6
2020-Jan-23 16:05 030 4 gusting 7 3.4
2020-Jan-23 16:00 035 3 gusting 7 3.6
2020-Jan-23 15:55 035 5 gusting 7 3.4
2020-Jan-23 15:50 020 5 gusting 8 3.5
2020-Jan-23 15:45 020 5 gusting 8 3.4
2020-Jan-23 15:40 050 6 gusting 7 3.4
2020-Jan-23 15:35 045 6 gusting 7 3.0
2020-Jan-23 15:30 050 5 gusting 6 3.0
2020-Jan-23 15:25 050 5 gusting 7 3.1
2020-Jan-23 15:20 040 6 gusting 7 3.0
2020-Jan-23 15:15 035 4 gusting 7 2.7
2020-Jan-23 15:10 045 5 gusting 7 3.1
2020-Jan-23 15:05 035 4 gusting 6 3.1
2020-Jan-23 15:00 015 2 gusting 5 3.0
2020-Jan-23 14:55 040 3 gusting 5 2.6
2020-Jan-23 14:50 020 3 gusting 5 2.6
2020-Jan-23 14:45 045 3 gusting 5 2.4
2020-Jan-23 14:40 040 4 gusting 6 2.1
2020-Jan-23 14:35 035 3 gusting 6 1.6
2020-Jan-23 14:30 015 3 gusting 5 1.9
2020-Jan-23 14:25 020 3 gusting 4 1.4
2020-Jan-23 14:20 020 3 gusting 4 1.1
2020-Jan-23 14:15 020 3 gusting 4 0.8
2020-Jan-23 14:10 025 3 gusting 4 0.7
2020-Jan-23 14:05 025 1 gusting 3 0.3
2020-Jan-23 14:00 350 1 gusting 3 -0.0
2020-Jan-23 13:55 005 2 gusting 3 -0.5
2020-Jan-23 13:50 355 1 gusting 4 -0.9
2020-Jan-23 13:45 025 2 gusting 6 -1.3
2020-Jan-23 13:40 030 4 gusting 6 -1.8
2020-Jan-23 13:35 020 4 gusting 5 -2.1
2020-Jan-23 13:30 010 3 gusting 4 -2.4
2020-Jan-23 13:25 005 3 gusting 4 -2.6
2020-Jan-23 13:20 020 2 gusting 3 -2.4
2020-Jan-23 13:15 030 1 gusting 2 -2.1
2020-Jan-23 13:10 050 1 gusting 3 -2.1
2020-Jan-23 13:05 060 1 gusting 3 -3.1
2020-Jan-23 13:00 070 2 gusting 3 -3.9
2020-Jan-23 12:55 035 1 gusting 2 -4.0
2020-Jan-23 12:50 065 0 gusting 1 -4.9
2020-Jan-23 12:45 075 0 gusting 1 -5.4
2020-Jan-23 12:40 045 1 gusting 3 -5.5
2020-Jan-23 12:35 040 1 gusting 3 -5.7
2020-Jan-23 12:30 045 2 gusting 3 -6.3
2020-Jan-23 12:25 035 2 gusting 3 -6.3
2020-Jan-23 12:20 -6.4
2020-Jan-23 12:15 045 1 gusting 1 -5.7
2020-Jan-23 12:10 045 0 gusting 2 -4.9
2020-Jan-23 12:05 105 1 gusting 2 -4.9
2020-Jan-23 12:00 115 0 gusting 1 -4.8
2020-Jan-23 11:55 310 0 gusting 3 -4.5
2020-Jan-23 11:50 320 1 gusting 3 -4.7
2020-Jan-23 11:45 310 1 gusting 2 -4.5
2020-Jan-23 11:40 320 0 gusting 1 -4.5
2020-Jan-23 11:35 035 0 gusting 2 -4.7
2020-Jan-23 11:30 275 0 gusting 2 -4.7
2020-Jan-23 11:25 315 0 gusting 1 -5.9
2020-Jan-23 11:20 300 0 gusting 1 -5.7
2020-Jan-23 11:15 025 0 gusting 1 -5.4
2020-Jan-23 11:10 295 0 gusting 1 -5.2
2020-Jan-23 11:05 295 0 gusting 1 -5.3
2020-Jan-23 11:00 270 0 gusting 1 -5.2